Overview Statistics Trail Chart Weather Telemetry Raw packets
 

This is the latest recevied weather packets stored in our database for station/object DB0OHL. If no packets are shown the sender has not sent any weather packets the latest 10 day(s).

<< 27 28 29 30 31 32 33 >>
Time Temp. Humidity Pressure Rain* Wind** Luminosity Snow
1777409735 11.67° C 52% 1022.4 hPa 0 mm - - -
1777409133 12.22° C 53% 1022.4 hPa 0 mm - - -
1777408530 12.22° C 53% 1022.2 hPa 0 mm - - -
1777407928 12.22° C 52% 1022.2 hPa 0 mm - - -
1777407325 12.22° C 53% 1022.2 hPa 0 mm - - -
1777406723 12.78° C 52% 1022 hPa 0 mm - - -
1777406120 12.78° C 52% 1022 hPa 0 mm - - -
1777405518 12.78° C 52% 1021.9 hPa 0 mm - - -
1777404915 12.78° C 53% 1021.8 hPa 0 mm - - -
1777404373 12.78° C 53% 1021.5 hPa 0 mm - - -
1777403770 13.33° C 52% 1021.4 hPa 0 mm - - -
1777403168 13.33° C 53% 1021.4 hPa 0 mm - - -
1777402565 13.33° C 53% 1021.3 hPa 0 mm - - -
1777401963 13.89° C 52% 1021.1 hPa 0 mm - - -
1777401360 13.89° C 53% 1021.1 hPa 0 mm - - -
1777400758 14.44° C 52% 1021.1 hPa 0 mm - - -
1777400155 14.44° C 53% 1020.9 hPa 0 mm - - -
1777399553 14.44° C 53% 1020.9 hPa 0 mm - - -
1777398950 15° C 52% 1020.7 hPa 0 mm - - -
1777398347 15.56° C 51% 1020.7 hPa 0 mm - - -
1777397745 15.56° C 52% 1020.5 hPa 0 mm - - -
1777397142 16.11° C 48% 1020.5 hPa 0 mm - - -
1777396540 16.11° C 49% 1020.5 hPa 0 mm - - -
1777395937 16.11° C 47% 1020.4 hPa 0 mm - - -
1777395335 16.67° C 46% 1020.5 hPa 0 mm - - -

* Rain latest hour (hover to see other rain measurements)
** Current wind speed in m/s (hover to see current wind gust speed)